Weather History for KSDY - April, 2013

Change the Weather History Date:

Wednesday, April 24, 2013

  Actual Average Record
Temperature  
Mean Temperature 36 °F -  
Max Temperature 44 °F 66 °F 89 °F (2012)
Min Temperature 28 °F 35 °F 19 °F (1958)
Degree Days  
Heating Degree Days 29    
Moisture  
Dew Point 23 °F    
Average Humidity 63    
Maximum Humidity 93    
Minimum Humidity 36    
Precipitation  
Precipitation 0.00 in - - ()
Sea Level Pressure  
Sea Level Pressure 30.06 in    
Wind  
Wind Speed 14 mph (NW)    
Max Wind Speed 25 mph    
Max Gust Speed 36 mph    
Visibility 10 miles    
Events      
Averages and records for this station are not official NWS values.
T = Trace of Precipitation, MM = Missing Value Source: NWS Daily Summary

Daily Weather History Graph

Daily Weather History Graph

Search for Another Location

Airport or City:

Trip Planner

Search our weather history database for the weather conditions in past years. The results will help you decide how hot, cold, wet, or windy it might be!

Date:

Astronomy

Apr. 24, 2013 Rise Set
Actual Time 5:50 AM MDT 7:59 PM MDT
Civil Twilight 5:17 AM MDT 8:33 PM MDT
Nautical Twilight 4:35 AM MDT 9:15 PM MDT
Astronomical Twilight 3:49 AM MDT 10:02 PM MDT
Moon 7:03 PM MDT (4/24) 5:00 AM MDT (4/24)
Length of Visible Light 15h 16m
Length of Day
14h 09m
Waxing Gibbous, 98% of the Moon is Illuminated
Apr 24
Waxing Gibbous
Apr 25
Full
May 2
Last Quarter
May 9
New
May 17
First Quarter

Hourly Weather History & Observations

Time (MDT) Temp. Windchill Dew Point Humidity Pressure Visibility Wind Dir Wind Speed Gust Speed Precip Events Conditions
12:15 AM 30.2 °F 24.3 °F 28.4 °F 93% 30.03 in 10.0 mi SW 5.8 mph - N/A   Mostly Cloudy
12:35 AM 32.0 °F 24.2 °F 30.2 °F 93% 30.03 in 10.0 mi WSW 9.2 mph - N/A   Overcast
12:55 AM 33.8 °F 26.4 °F 30.2 °F 87% 30.03 in 10.0 mi WSW 9.2 mph - N/A   Overcast
1:15 AM 33.8 °F 26.4 °F 30.2 °F 87% 30.03 in 10.0 mi West 9.2 mph - N/A   Overcast
1:35 AM 35.6 °F 24.5 °F 28.4 °F 75% 30.04 in 10.0 mi NW 20.7 mph 25.3 mph N/A   Overcast
1:55 AM 33.8 °F 23.5 °F 30.2 °F 87% 30.04 in 10.0 mi NW 16.1 mph - N/A   Overcast
2:15 AM 33.8 °F 23.9 °F 30.2 °F 87% 30.04 in 10.0 mi WNW 15.0 mph 19.6 mph N/A   Overcast
2:35 AM 33.8 °F 23.5 °F 28.4 °F 81% 30.04 in 9.0 mi NW 16.1 mph 19.6 mph N/A   Overcast
2:55 AM 33.8 °F 24.8 °F 28.4 °F 81% 30.03 in 2.0 mi NW 12.7 mph - N/A   Overcast
3:15 AM 32.0 °F 26.4 °F 28.4 °F 87% 30.01 in 10.0 mi WSW 5.8 mph - N/A   Overcast
3:35 AM 30.2 °F 23.4 °F 28.4 °F 93% 30.01 in 10.0 mi West 6.9 mph - N/A   Mostly Cloudy
3:55 AM 30.2 °F 20.8 °F 28.4 °F 93% 30.02 in 10.0 mi West 11.5 mph - N/A   Partly Cloudy
4:15 AM 30.2 °F 21.9 °F 26.6 °F 86% 30.01 in 10.0 mi West 9.2 mph - N/A   Partly Cloudy
4:35 AM 30.2 °F 19.8 °F 26.6 °F 86% 30.01 in 10.0 mi West 13.8 mph - N/A   Clear
4:55 AM 30.2 °F 18.5 °F 26.6 °F 86% 30.02 in 10.0 mi West 17.3 mph 21.9 mph N/A   Clear
5:15 AM 30.2 °F 18.5 °F 28.4 °F 93% 30.02 in 10.0 mi West 17.3 mph 21.9 mph N/A   Mostly Cloudy
5:35 AM 32.0 °F 21.6 °F 28.4 °F 87% 30.01 in 10.0 mi WNW 15.0 mph 20.7 mph N/A   Mostly Cloudy
5:55 AM 32.0 °F 21.6 °F 28.4 °F 87% 30.01 in 9.0 mi WNW 15.0 mph - N/A   Mostly Cloudy
6:15 AM 32.0 °F 22.5 °F 28.4 °F 87% 30.02 in 10.0 mi WNW 12.7 mph - N/A   Mostly Cloudy
6:35 AM 32.0 °F 20.8 °F 26.6 °F 80% 30.02 in 10.0 mi West 17.3 mph 20.7 mph N/A   Mostly Cloudy
6:55 AM 32.0 °F 20.5 °F 26.6 °F 80% 30.03 in 10.0 mi WNW 18.4 mph 24.2 mph N/A   Mostly Cloudy
7:15 AM 33.8 °F 22.8 °F 26.6 °F 75% 30.04 in 10.0 mi NW 18.4 mph 26.5 mph N/A   Mostly Cloudy
7:35 AM 33.8 °F 21.6 °F 26.6 °F 75% 30.05 in 10.0 mi NW 23.0 mph 28.8 mph N/A   Overcast
7:55 AM 32.0 °F 19.5 °F 21.2 °F 64% 30.07 in 10.0 mi NW 21.9 mph 29.9 mph N/A   Overcast
8:35 AM 33.8 °F 22.2 °F 21.2 °F 60% 30.08 in 10.0 mi NW 20.7 mph 26.5 mph N/A   Scattered Clouds
8:55 AM 33.8 °F 22.5 °F 21.2 °F 60% 30.09 in 10.0 mi NW 19.6 mph 29.9 mph N/A   Mostly Cloudy
9:35 AM 35.6 °F 24.0 °F 19.4 °F 52% 30.10 in 10.0 mi NNW 23.0 mph 35.7 mph N/A   Scattered Clouds
9:55 AM 35.6 °F 24.0 °F 23.0 °F 60% 30.10 in 10.0 mi NW 23.0 mph 27.6 mph N/A   Mostly Cloudy
10:15 AM 35.6 °F 24.5 °F 19.4 °F 52% 30.11 in 10.0 mi NW 20.7 mph 31.1 mph N/A   Mostly Cloudy
10:35 AM 35.6 °F 23.7 °F 19.4 °F 52% 30.11 in 10.0 mi NNW 24.2 mph 31.1 mph N/A   Mostly Cloudy
10:55 AM 35.6 °F 23.7 °F 19.4 °F 52% 30.12 in 9.0 mi NW 24.2 mph 34.5 mph N/A   Mostly Cloudy
11:15 AM 37.4 °F 26.9 °F 23.0 °F 56% 30.12 in 10.0 mi WNW 20.7 mph 26.5 mph N/A   Overcast
11:35 AM 37.4 °F 26.9 °F 21.2 °F 52% 30.12 in 10.0 mi NW 20.7 mph 26.5 mph N/A   Overcast
11:55 AM 37.4 °F 26.9 °F 19.4 °F 48% 30.12 in 10.0 mi NW 20.7 mph 33.4 mph N/A   Overcast
12:15 PM 37.4 °F 25.9 °F 19.4 °F 48% 30.12 in 10.0 mi NW 25.3 mph 29.9 mph N/A   Overcast
12:35 PM 37.4 °F 26.4 °F 17.6 °F 45% 30.12 in 10.0 mi NW 23.0 mph 28.8 mph N/A   Overcast
12:55 PM 37.4 °F 28.2 °F 17.6 °F 45% 30.12 in 10.0 mi NW 16.1 mph 26.5 mph N/A   Overcast
1:15 PM 39.2 °F 28.7 °F 17.6 °F 42% 30.12 in 10.0 mi NNW 23.0 mph 27.6 mph N/A   Overcast
1:35 PM 39.2 °F 29.3 °F 17.6 °F 42% 30.12 in 10.0 mi NNW 20.7 mph 26.5 mph N/A   Mostly Cloudy
2:15 PM 41.0 °F 32.5 °F 19.4 °F 42% 30.12 in 10.0 mi NNW 17.3 mph 25.3 mph N/A   Mostly Cloudy
2:35 PM 41.0 °F 33.1 °F 17.6 °F 39% 30.12 in 10.0 mi NNW 15.0 mph 23.0 mph N/A   Scattered Clouds
2:55 PM 41.0 °F 31.6 °F 19.4 °F 42% 30.11 in 10.0 mi NNW 20.7 mph 24.2 mph N/A   Scattered Clouds
3:15 PM 42.8 °F 35.1 °F 17.6 °F 36% 30.11 in 10.0 mi NW 16.1 mph 27.6 mph N/A   Clear
3:35 PM 42.8 °F 35.4 °F 19.4 °F 39% 30.10 in 10.0 mi NNW 15.0 mph 24.2 mph N/A   Scattered Clouds
3:55 PM 42.8 °F 35.4 °F 17.6 °F 36% 30.10 in 10.0 mi NW 15.0 mph 20.7 mph N/A   Scattered Clouds
4:15 PM 42.8 °F 35.4 °F 17.6 °F 36% 30.08 in 10.0 mi NNW 15.0 mph 18.4 mph N/A   Clear
4:55 PM 44.6 °F 37.4 °F 19.4 °F 37% 30.08 in 9.0 mi NNW 16.1 mph 20.7 mph N/A   Clear
5:15 PM 42.8 °F 35.1 °F 19.4 °F 39% 30.07 in 3.0 mi NNW 16.1 mph - N/A   Clear
5:35 PM 42.8 °F 36.2 °F 19.4 °F 39% 30.07 in 10.0 mi North 12.7 mph 20.7 mph N/A   Clear
5:55 PM 42.8 °F 35.1 °F 19.4 °F 39% 30.07 in 10.0 mi NNW 16.1 mph 20.7 mph N/A   Clear
6:15 PM 42.8 °F 36.6 °F 19.4 °F 39% 30.06 in 10.0 mi NW 11.5 mph - N/A   Clear
6:55 PM 42.8 °F 39.3 °F 19.4 °F 39% 30.05 in 10.0 mi NNW 5.8 mph - N/A   Clear
7:15 PM 41.0 °F 38.0 °F 19.4 °F 42% 30.05 in 7.0 mi North 4.6 mph - N/A   Clear
7:35 PM 42.8 °F 39.3 °F 19.4 °F 39% 30.04 in 10.0 mi NE 5.8 mph - N/A   Clear
7:55 PM 39.2 °F 34.2 °F 19.4 °F 45% 30.04 in 10.0 mi ENE 6.9 mph - N/A   Clear
8:55 PM 30.2 °F - 21.2 °F 69% 30.05 in 10.0 mi Calm Calm - N/A   Clear
9:15 PM 28.4 °F - 19.4 °F 69% 30.05 in 10.0 mi Calm Calm - N/A   Clear
9:35 PM 28.4 °F - 19.4 °F 69% 30.04 in 10.0 mi Calm Calm - N/A   Clear
10:35 PM 28.4 °F 22.2 °F 21.2 °F 74% 30.02 in 10.0 mi SW 5.8 mph - N/A   Clear
11:55 PM 28.4 °F 20.4 °F 21.2 °F 74% 29.99 in 10.0 mi South 8.1 mph - N/A   Clear